When you browse on this site, cookies collect data to enhance your experience and personalize the content and advertising you see.
Visit our Privacy Policy to learn more. By continuing to use the site, you agree to this use of cookies and data.
  • In Österreich
  • Länderverzeichnis
  • Für 7 Tage
  • Wassertemperatur
  • Wetterkarte
  • News
  • Widgets
  • user-avatar
    Anmelden

    Stündliche Wetter Kipungo

    Heute, 19 September, Donnerstag

    Zeit Temperatur Niederschläge Wind Luftdruck Luftfeuchtigkeit
    00:00 +17°C° 0 mm 2 m/S 653 mmHg 55%
    01:00 +16°C° 0 mm 2 m/S 652 mmHg 73%
    02:00 +15°C° 0 mm 1 m/S 652 mmHg 75%
    03:00 +15°C° 0 mm 1 m/S 652 mmHg 78%
    04:00 +13°C° 0 mm 0 m/S 652 mmHg 80%
    05:00 +14°C° 0 mm 0 m/S 653 mmHg 75%
    06:00 +15°C° 0 mm 0 m/S 653 mmHg 69%
    07:00 +16°C° 0 mm 0 m/S 654 mmHg 63%
    08:00 +23°C° 0 mm 2 m/S 655 mmHg 48%
    09:00 +27°C° 0 mm 3 m/S 655 mmHg 33%
    10:00 +33°C° 0 mm 5 m/S 656 mmHg 18%
    11:00 +35°C° 0 mm 4 m/S 656 mmHg 15%
    12:00 +37°C° 0 mm 4 m/S 655 mmHg 12%
    13:00 +38°C° 0 mm 3 m/S 654 mmHg 10%
    14:00 +38°C° 0 mm 2 m/S 654 mmHg 9%
    15:00 +39°C° 0 mm 2 m/S 654 mmHg 9%
    16:00 +39°C° 0 mm 1 m/S 653 mmHg 8%
    17:00 +35°C° 0 mm 2 m/S 653 mmHg 14%
    18:00 +30°C° 0 mm 2 m/S 653 mmHg 20%
    19:00 +26°C° 0 mm 3 m/S 653 mmHg 26%
    20:00 +24°C° 0 mm 3 m/S 653 mmHg 40%
    21:00 +21°C° 0 mm 2 m/S 653 mmHg 54%
    22:00 +18°C° 0 mm 2 m/S 653 mmHg 68%
    23:00 +18°C° 0 mm 2 m/S 653 mmHg 71%

    Morgen, 20 September, Freitag

    Zeit Temperatur Niederschläge Wind Luftdruck Luftfeuchtigkeit
    00:00 +17°C° 0 mm 2 m/S 652 mmHg 74%
    01:00 +16°C° 0 mm 1 m/S 652 mmHg 77%
    02:00 +16°C° 0 mm 1 m/S 652 mmHg 76%
    03:00 +15°C° 0 mm 1 m/S 652 mmHg 75%
    04:00 +15°C° 0 mm 1 m/S 652 mmHg 74%
    05:00 +16°C° 0 mm 1 m/S 652 mmHg 68%
    06:00 +16°C° 0 mm 0 m/S 653 mmHg 63%
    07:00 +17°C° 0 mm 0 m/S 653 mmHg 57%
    08:00 +23°C° 0 mm 1 m/S 654 mmHg 45%
    09:00 +27°C° 0 mm 2 m/S 655 mmHg 32%
    10:00 +31°C° 0 mm 2 m/S 655 mmHg 19%
    11:00 +34°C° 0 mm 3 m/S 655 mmHg 17%
    12:00 +36°C° 0 mm 3 m/S 655 mmHg 14%
    13:00 +38°C° 0 mm 3 m/S 654 mmHg 12%
    14:00 +38°C° 0 mm 3 m/S 654 mmHg 11%
    15:00 +38°C° 0 mm 2 m/S 653 mmHg 11%
    16:00 +38°C° 0 mm 2 m/S 653 mmHg 10%
    17:00 +35°C° 0 mm 2 m/S 653 mmHg 15%
    18:00 +31°C° 0 mm 2 m/S 653 mmHg 19%
    19:00 +28°C° 0 mm 2 m/S 653 mmHg 23%
    20:00 +25°C° 0 mm 2 m/S 653 mmHg 36%
    21:00 +23°C° 0 mm 2 m/S 652 mmHg 49%
    22:00 +19°C° 0 mm 2 m/S 652 mmHg 61%
    23:00 +18°C° 0 mm 2 m/S 652 mmHg 66%

    übermorgen, 21 September, Samstag

    Zeit Temperatur Niederschläge Wind Luftdruck Luftfeuchtigkeit
    00:00 +17°C° 0 mm 2 m/S 652 mmHg 72%
    01:00 +16°C° 0 mm 2 m/S 651 mmHg 77%
    02:00 +16°C° 0 mm 1 m/S 651 mmHg 78%
    03:00 +15°C° 0 mm 1 m/S 651 mmHg 79%
    04:00 +15°C° 0 mm 1 m/S 651 mmHg 80%
    05:00 +16°C° 0 mm 1 m/S 652 mmHg 74%
    06:00 +16°C° 0 mm 0 m/S 652 mmHg 68%
    07:00 +18°C° 0 mm 0 m/S 653 mmHg 61%
    08:00 +23°C° 0 mm 0 m/S 654 mmHg 46%
    09:00 +28°C° 0 mm 0 m/S 655 mmHg 32%
    10:00 +34°C° 0 mm 0 m/S 657 mmHg 17%
    11:00 +36°C° 0 mm 0 m/S 656 mmHg 14%
    12:00 +41°C° 0 mm 1 m/S 656 mmHg 12%
    13:00 +42°C° 0 mm 1 m/S 655 mmHg 9%
    14:00 +41°C° 0 mm 1 m/S 654 mmHg 10%
    15:00 +40°C° 0 mm 1 m/S 654 mmHg 10%
    16:00 +37°C° 0 mm 1 m/S 653 mmHg 11%
    17:00 +35°C° 0 mm 2 m/S 653 mmHg 16%
    18:00 +31°C° 0 mm 3 m/S 653 mmHg 21%
    19:00 +28°C° 0 mm 4 m/S 653 mmHg 26%
    20:00 +26°C° 0 mm 3 m/S 653 mmHg 36%
    21:00 +22°C° 0 mm 3 m/S 653 mmHg 47%
    22:00 +20°C° 0 mm 2 m/S 653 mmHg 57%
    23:00 +19°C° 0 mm 2 m/S 652 mmHg 59%

    22 September, Sonntag

    Zeit Temperatur Niederschläge Wind Luftdruck Luftfeuchtigkeit
    00:00 +19°C° 0 mm 2 m/S 652 mmHg 61%
    01:00 +19°C° 0 mm 1 m/S 652 mmHg 63%
    02:00 +18°C° 0 mm 1 m/S 652 mmHg 66%
    03:00 +16°C° 0 mm 1 m/S 652 mmHg 69%
    04:00 +16°C° 0 mm 1 m/S 651 mmHg 71%
    05:00 +18°C° 0 mm 1 m/S 652 mmHg 64%
    06:00 +19°C° 0 mm 1 m/S 653 mmHg 56%
    07:00 +20°C° 0 mm 1 m/S 653 mmHg 49%
    08:00 +25°C° 0 mm 1 m/S 654 mmHg 37%
    09:00 +29°C° 0 mm 2 m/S 655 mmHg 24%
    10:00 +35°C° 0 mm 2 m/S 656 mmHg 12%
    11:00 +37°C° 0 mm 2 m/S 655 mmHg 11%
    12:00 +38°C° 0 mm 2 m/S 655 mmHg 9%
    13:00 +40°C° 0 mm 2 m/S 654 mmHg 8%
    14:00 +40°C° 0 mm 2 m/S 654 mmHg 8%
    15:00 +39°C° 0 mm 2 m/S 654 mmHg 8%
    16:00 +39°C° 0 mm 2 m/S 653 mmHg 8%
    17:00 +35°C° 0 mm 2 m/S 653 mmHg 13%
    18:00 +31°C° 0 mm 3 m/S 653 mmHg 19%
    19:00 +27°C° 0 mm 4 m/S 653 mmHg 24%
    20:00 +25°C° 0 mm 3 m/S 653 mmHg 36%
    21:00 +22°C° 0 mm 3 m/S 653 mmHg 47%
    22:00 +19°C° 0 mm 2 m/S 653 mmHg 59%
    23:00 +18°C° 0 mm 2 m/S 652 mmHg 63%

    23 September, Montag

    Zeit Temperatur Niederschläge Wind Luftdruck Luftfeuchtigkeit
    00:00 +19°C° 0 mm 1 m/S 652 mmHg 67%
    01:00 +18°C° 0 mm 1 m/S 652 mmHg 71%
    02:00 +16°C° 0 mm 1 m/S 652 mmHg 73%
    03:00 +16°C° 0 mm 1 m/S 652 mmHg 74%
    04:00 +15°C° 0 mm 1 m/S 652 mmHg 76%
    05:00 +16°C° 0 mm 1 m/S 652 mmHg 68%
    06:00 +18°C° 0 mm 1 m/S 653 mmHg 59%
    07:00 +19°C° 0 mm 1 m/S 653 mmHg 51%
    08:00 +24°C° 0 mm 1 m/S 654 mmHg 38%
    09:00 +28°C° 0 mm 2 m/S 655 mmHg 26%
    10:00 +34°C° 0 mm 2 m/S 656 mmHg 13%
    11:00 +36°C° 0 mm 2 m/S 655 mmHg 12%
    12:00 +37°C° 0 mm 3 m/S 655 mmHg 11%
    13:00 +39°C° 0 mm 3 m/S 654 mmHg 10%
    14:00 +39°C° 0 mm 3 m/S 654 mmHg 10%
    15:00 +39°C° 0 mm 2 m/S 653 mmHg 10%
    16:00 +39°C° 0 mm 2 m/S 653 mmHg 10%
    17:00 +36°C° 0 mm 2 m/S 653 mmHg 13%
    18:00 +32°C° 0 mm 2 m/S 653 mmHg 17%
    19:00 +29°C° 0 mm 2 m/S 654 mmHg 20%
    20:00 +27°C° 0 mm 2 m/S 653 mmHg 29%
    21:00 +25°C° 0 mm 3 m/S 653 mmHg 38%
    22:00 +22°C° 0 mm 3 m/S 653 mmHg 48%
    23:00 +20°C° 0 mm 2 m/S 653 mmHg 54%

    24 September, Dienstag

    Zeit Temperatur Niederschläge Wind Luftdruck Luftfeuchtigkeit
    00:00 +19°C° 0 mm 2 m/S 652 mmHg 60%
    01:00 +19°C° 0 mm 1 m/S 652 mmHg 65%
    02:00 +18°C° 0 mm 1 m/S 652 mmHg 67%
    03:00 +18°C° 0 mm 1 m/S 652 mmHg 69%
    04:00 +16°C° 0 mm 1 m/S 652 mmHg 70%
    05:00 +19°C° 0 mm 1 m/S 652 mmHg 63%
    06:00 +18°C° 0 mm 0 m/S 653 mmHg 56%
    07:00 +19°C° 0 mm 0 m/S 654 mmHg 50%
    08:00 +26°C° 0 mm 1 m/S 654 mmHg 37%
    09:00 +30°C° 0 mm 1 m/S 655 mmHg 25%
    10:00 +36°C° 0 mm 2 m/S 656 mmHg 13%
    11:00 +37°C° 0 mm 3 m/S 655 mmHg 11%
    12:00 +38°C° 0 mm 3 m/S 655 mmHg 10%
    13:00 +41°C° 0 mm 4 m/S 654 mmHg 9%
    14:00 +40°C° 0 mm 3 m/S 654 mmHg 8%
    15:00 +40°C° 0 mm 2 m/S 654 mmHg 8%
    16:00 +40°C° 0 mm 2 m/S 653 mmHg 7%
    17:00 +36°C° 0 mm 2 m/S 653 mmHg 13%
    18:00 +31°C° 0 mm 3 m/S 653 mmHg 20%
    19:00 +27°C° 0 mm 3 m/S 653 mmHg 26%
    20:00 +25°C° 0 mm 3 m/S 653 mmHg 39%
    21:00 +22°C° 0 mm 3 m/S 653 mmHg 52%
    22:00 +19°C° 0 mm 2 m/S 653 mmHg 66%
    23:00 +18°C° 0 mm 2 m/S 652 mmHg 73%
    Mehr zeigen